Location: ??
(34.9170°N, 135.5016°E)
Time: 00:16:17
(UTC+00:00)

RS-15 - Pass Details

Date: 21 April 2021
Orbit: 1888 x 2157 km, 64.8° (Epoch: 12 May)

Event Time Altitude Azimuth Distance (km) Brightness Sun altitude
Rises 16:42:29 0° 331° (NNW) 5,517 10.7 -36.7°
Reaches altitude 10° 16:46:29 10° 342° (NNW) 4,552 10.3 -36.3°
Maximum altitude 16:56:56 33° 43° (NE) 3,144 9.5 -35.0°
Drops below altitude 10° 17:07:32 10° 104° (ESE) 4,666 10.2 -33.7°
Sets 17:11:38 0° 113° (ESE) 5,671 10.7 -33.1°
